sat.trackr.live / text

‹ back to catalog

STARLINK-34303

NORAD 64168 · 2025-112Y

PAYLOAD ACTIVE UNKNOWN

§ Identity

Operator
Country
US
Launch date
2025-05-27
Launch site
AFWTR
Launch vehicle
Mass (kg)
RCS (m²)

Purposes: comms

External: N2YO · Heavens-Above · Gunter

§ Orbital elements

Epoch: 2026-05-25T03:02:05.787168Z

Period
95.64 min
Inclination
97.4525°
Eccentricity
0.0001926
Mean motion
15.05647530 rev/d
Perigee alt
548.2 km
Apogee alt
550.9 km
Semi-major
6,927.7 km
B*
-1.9585e-4
RAAN
196.5620°
Arg perigee
138.6154°
Mean anomaly
221.5219°
Rev number
5,481

§ Raw data

STARLINK-343031 64168U 25112Y   26145.12645587 -.00002883  00000+0 -19585-3 0  99952 64168  97.4525 196.5620 0001926 138.6154 221.5219 15.05647530 54810

JSON: /api/v1/satellites/64168 · /tle

For live sub-satellite position, see the globe view (requires WebGL).

§ Visibility from observer

Set your observer location to see the next 7 days of passes ≥ 10°. The values pass through the URL so the page stays shareable.

No JS? Fill the form by hand. The geolocation button needs JavaScript.